TKJ37F LTAC-LTFJ

Flight info

Callsign TKJ37F
Flight time 0h 54m
Altitude 28000
Route DEREL T79 NAMAN
Aircraft B738/M-SDE2E3FGHIRWXY/LB1

Departure

Time 2026-05-06 08:32
Airport Esenboğa International Airport (LTAC)

Arrival

Time 2026-05-06 09:26
Airport Istanbul Sabiha Gökçen International Airport (LTFJ)
Time Latitude Longitude Altitude Speed Heading
2026-05-06 08:00 40.11635 32.99178 3112 ft 0 kts 149°
2026-05-06 08:25 40.11653 32.99165 3112 ft 4 kts 159°
2026-05-06 08:25 40.11679 32.99157 3112 ft 4 kts 184°
2026-05-06 08:25 40.11702 32.99167 3112 ft 4 kts 231°
2026-05-06 08:25 40.11706 32.99174 3112 ft 1 kts 243°
2026-05-06 08:27 40.11701 32.99161 3112 ft 4 kts 243°
2026-05-06 08:27 40.11679 32.99113 3112 ft 9 kts 238°
2026-05-06 08:27 40.11640 32.99030 3112 ft 11 kts 238°
2026-05-06 08:27 40.11630 32.98940 3112 ft 9 kts 295°
2026-05-06 08:28 40.11667 32.98870 3112 ft 9 kts 307°
2026-05-06 08:28 40.11705 32.98804 3111 ft 9 kts 306°
2026-05-06 08:28 40.11720 32.98777 3111 ft 0 kts 305°
2026-05-06 08:30 40.11728 32.98762 3111 ft 5 kts 305°
2026-05-06 08:30 40.11763 32.98697 3112 ft 12 kts 304°
2026-05-06 08:31 40.11812 32.98605 3112 ft 12 kts 304°
2026-05-06 08:31 40.11861 32.98516 3112 ft 12 kts 307°
2026-05-06 08:31 40.11937 32.98516 3112 ft 15 kts 32°
2026-05-06 08:31 40.12158 32.98724 3115 ft 74 kts 36°
2026-05-06 08:32 40.12783 32.99325 3121 ft 140 kts 36°
2026-05-06 08:32 40.13700 33.00204 3294 ft 177 kts 37°
2026-05-06 08:32 40.14671 33.01215 4080 ft 179 kts 38°
2026-05-06 08:32 40.15696 33.02302 4559 ft 204 kts 39°
2026-05-06 08:33 40.16857 33.03541 4763 ft 227 kts 39°
2026-05-06 08:33 40.18130 33.04905 5034 ft 244 kts 39°
2026-05-06 08:33 40.19462 33.06331 5568 ft 250 kts 38°
2026-05-06 08:33 40.21012 33.07251 6184 ft 252 kts
2026-05-06 08:34 40.22758 33.06950 6767 ft 264 kts 335°
2026-05-06 08:34 40.25451 33.03509 8096 ft 279 kts 308°
2026-05-06 08:34 40.26648 33.01490 8900 ft 283 kts 308°
2026-05-06 08:35 40.27859 32.99443 9711 ft 286 kts 308°
2026-05-06 08:35 40.29094 32.97371 10378 ft 294 kts 308°
2026-05-06 08:35 40.30412 32.95178 10576 ft 319 kts 308°
2026-05-06 08:35 40.31839 32.92820 10761 ft 341 kts 309°
2026-05-06 08:36 40.33361 32.90311 10949 ft 361 kts 309°
2026-05-06 08:36 40.34948 32.87690 11397 ft 371 kts 309°
2026-05-06 08:36 40.36460 32.84985 11982 ft 374 kts 306°
2026-05-06 08:36 40.37938 32.82195 12072 ft 372 kts 306°
2026-05-06 08:37 40.39427 32.79382 12325 ft 377 kts 306°
2026-05-06 08:37 40.40928 32.76559 13134 ft 377 kts 306°
2026-05-06 08:37 40.42441 32.73734 13869 ft 380 kts 306°
2026-05-06 08:37 40.43972 32.70880 14502 ft 384 kts 306°
2026-05-06 08:38 40.45514 32.68005 15180 ft 386 kts 306°
2026-05-06 08:38 40.47061 32.65119 15920 ft 387 kts 306°
2026-05-06 08:38 40.48614 32.62217 16596 ft 390 kts 306°
2026-05-06 08:38 40.50184 32.59282 17169 ft 395 kts 306°
2026-05-06 08:39 40.51745 32.56360 17806 ft 398 kts 306°
2026-05-06 08:39 40.53336 32.53377 18469 ft 400 kts 307°
2026-05-06 08:39 40.54937 32.50371 19073 ft 402 kts 307°
2026-05-06 08:39 40.56543 32.47355 19702 ft 403 kts 307°
2026-05-06 08:40 40.58150 32.44333 20284 ft 405 kts 307°
2026-05-06 08:40 40.59768 32.41287 20826 ft 407 kts 306°
2026-05-06 08:40 40.61398 32.38217 21368 ft 410 kts 306°
2026-05-06 08:40 40.63032 32.35134 21924 ft 412 kts 306°
2026-05-06 08:41 40.64672 32.32038 22461 ft 414 kts 306°
2026-05-06 08:41 40.66301 32.28959 23004 ft 416 kts 306°
2026-05-06 08:41 40.67959 32.25824 23505 ft 419 kts 306°
2026-05-06 08:41 40.69628 32.22664 23945 ft 421 kts 306°
2026-05-06 08:42 40.71275 32.19455 24273 ft 426 kts 302°
2026-05-06 08:42 40.72410 32.15822 24636 ft 433 kts 289°
2026-05-06 08:42 40.73301 32.12033 25081 ft 434 kts 290°
2026-05-06 08:42 40.74212 32.08230 25446 ft 436 kts 290°
2026-05-06 08:43 40.75143 32.04417 25797 ft 438 kts 290°
2026-05-06 08:43 40.76088 32.00588 26162 ft 441 kts 291°
2026-05-06 08:43 40.77046 31.96732 26516 ft 443 kts 291°
2026-05-06 08:43 40.78009 31.92865 26856 ft 445 kts 291°
2026-05-06 08:44 40.78960 31.89039 27315 ft 444 kts 291°
2026-05-06 08:44 40.79916 31.85186 27852 ft 441 kts 291°
2026-05-06 08:44 40.80870 31.81340 28095 ft 443 kts 291°
2026-05-06 08:45 40.82779 31.73617 28078 ft 440 kts 291°
2026-05-06 08:45 40.84669 31.65941 28114 ft 439 kts 291°
2026-05-06 08:46 40.86555 31.58257 28102 ft 439 kts 291°
2026-05-06 08:46 40.88437 31.50565 28109 ft 440 kts 291°
2026-05-06 08:47 40.90302 31.42921 28120 ft 440 kts 291°
2026-05-06 08:47 40.92096 31.35172 28114 ft 442 kts 289°
2026-05-06 08:48 40.93817 31.27368 28103 ft 442 kts 289°
2026-05-06 08:48 40.95545 31.19556 28111 ft 442 kts 289°
2026-05-06 08:49 40.97267 31.11801 28113 ft 442 kts 289°
2026-05-06 08:49 40.98998 31.03990 28118 ft 442 kts 289°
2026-05-06 08:50 41.00702 30.96172 28118 ft 442 kts 288°
2026-05-06 08:50 41.02328 30.88322 28118 ft 442 kts 288°
2026-05-06 08:51 41.03950 30.80464 28100 ft 442 kts 288°
2026-05-06 08:51 41.05564 30.72673 28098 ft 442 kts 288°
2026-05-06 08:52 41.07621 30.65041 28113 ft 439 kts 295°
2026-05-06 08:52 41.10050 30.57620 28110 ft 439 kts 295°
2026-05-06 08:53 41.12436 30.50175 28112 ft 439 kts 295°
2026-05-06 08:53 41.14761 30.42689 28097 ft 439 kts 294°
2026-05-06 08:54 41.17053 30.35233 28113 ft 440 kts 294°
2026-05-06 08:54 41.19363 30.27707 28110 ft 440 kts 294°
2026-05-06 08:55 41.21649 30.20205 28111 ft 442 kts 292°
2026-05-06 08:55 41.22407 30.16252 27439 ft 446 kts 279°
2026-05-06 08:55 41.22657 30.12180 26887 ft 439 kts 276°
2026-05-06 08:55 41.22787 30.08156 26478 ft 432 kts 268°
2026-05-06 08:56 41.22051 30.04363 26371 ft 422 kts 247°
2026-05-06 08:56 41.20564 30.01128 26225 ft 412 kts 235°
2026-05-06 08:56 41.18592 29.98385 25765 ft 412 kts 221°
2026-05-06 08:56 41.16320 29.96060 25186 ft 413 kts 219°
2026-05-06 08:57 41.14008 29.93800 24625 ft 412 kts 218°
2026-05-06 08:57 41.11697 29.91566 24133 ft 410 kts 218°
2026-05-06 08:57 41.09400 29.89338 23688 ft 407 kts 218°
2026-05-06 08:57 41.07128 29.87118 23169 ft 404 kts 218°
2026-05-06 08:58 41.04885 29.84912 22672 ft 401 kts 218°
2026-05-06 08:58 41.02653 29.82708 22162 ft 398 kts 218°
2026-05-06 08:58 41.00444 29.80522 21663 ft 395 kts 218°
2026-05-06 08:58 40.98252 29.78351 21180 ft 392 kts 219°
2026-05-06 08:59 40.96101 29.76221 20709 ft 390 kts 219°
2026-05-06 08:59 40.93942 29.74084 20256 ft 387 kts 219°
2026-05-06 08:59 40.91794 29.71962 19819 ft 384 kts 219°
2026-05-06 08:59 40.89663 29.69857 19367 ft 382 kts 219°
2026-05-06 09:00 40.87539 29.67760 18910 ft 380 kts 219°
2026-05-06 09:00 40.85429 29.65679 18493 ft 377 kts 219°
2026-05-06 09:00 40.83331 29.63611 18020 ft 375 kts 219°
2026-05-06 09:00 40.81246 29.61559 17542 ft 373 kts 219°
2026-05-06 09:01 40.79174 29.59521 17070 ft 370 kts 219°
2026-05-06 09:01 40.77143 29.57525 16616 ft 368 kts 219°
2026-05-06 09:01 40.75097 29.55515 16159 ft 366 kts 218°
2026-05-06 09:01 40.73061 29.53517 15686 ft 364 kts 219°
2026-05-06 09:02 40.71075 29.51569 15196 ft 364 kts 219°
2026-05-06 09:02 40.69046 29.49581 14752 ft 363 kts 219°
2026-05-06 09:02 40.67026 29.47603 14361 ft 360 kts 219°
2026-05-06 09:02 40.65022 29.45642 13962 ft 358 kts 219°
2026-05-06 09:03 40.63028 29.43692 13515 ft 356 kts 219°
2026-05-06 09:03 40.61070 29.41780 13097 ft 354 kts 219°
2026-05-06 09:03 40.59107 29.39864 12794 ft 348 kts 218°
2026-05-06 09:03 40.57196 29.38001 12700 ft 336 kts 218°
2026-05-06 09:04 40.55351 29.36204 12625 ft 324 kts 218°
2026-05-06 09:04 40.53581 29.34463 12516 ft 313 kts 222°
2026-05-06 09:04 40.52279 29.32228 12194 ft 306 kts 253°
2026-05-06 09:04 40.51989 29.29534 11976 ft 296 kts 275°
2026-05-06 09:05 40.52149 29.26852 11720 ft 294 kts 279°
2026-05-06 09:05 40.52393 29.24191 11461 ft 293 kts 280°
2026-05-06 09:05 40.52646 29.21574 11228 ft 292 kts 280°
2026-05-06 09:05 40.52896 29.18930 10976 ft 292 kts 280°
2026-05-06 09:06 40.53139 29.16291 10736 ft 291 kts 279°
2026-05-06 09:06 40.53378 29.13657 10493 ft 288 kts 281°
2026-05-06 09:06 40.54047 29.11304 10312 ft 269 kts 310°
2026-05-06 09:06 40.55476 29.09844 9968 ft 258 kts 334°
2026-05-06 09:07 40.57110 29.08952 9560 ft 252 kts 343°
2026-05-06 09:07 40.58783 29.08316 9177 ft 249 kts 345°
2026-05-06 09:07 40.60442 29.07727 8791 ft 246 kts 345°
2026-05-06 09:07 40.62086 29.07137 8393 ft 243 kts 345°
2026-05-06 09:08 40.63703 29.06545 8027 ft 240 kts 345°
2026-05-06 09:08 40.65296 29.05955 7581 ft 241 kts 344°
2026-05-06 09:08 40.66905 29.05350 7139 ft 241 kts 344°
2026-05-06 09:08 40.68515 29.04739 6705 ft 240 kts 344°
2026-05-06 09:09 40.70122 29.04128 6248 ft 240 kts 343°
2026-05-06 09:09 40.71723 29.03517 5784 ft 240 kts 343°
2026-05-06 09:09 40.73324 29.02905 5367 ft 238 kts 343°
2026-05-06 09:09 40.74905 29.02310 4989 ft 235 kts 346°
2026-05-06 09:10 40.76512 29.02354 4629 ft 233 kts 18°
2026-05-06 09:10 40.77861 29.03445 4300 ft 231 kts 42°
2026-05-06 09:10 40.78819 29.05106 4080 ft 221 kts 56°
2026-05-06 09:10 40.79608 29.06768 4010 ft 207 kts 56°
2026-05-06 09:11 40.80359 29.08346 3879 ft 205 kts 57°
2026-05-06 09:11 40.81052 29.09979 3634 ft 202 kts 61°
2026-05-06 09:11 40.81672 29.11614 3372 ft 196 kts 63°
2026-05-06 09:11 40.82246 29.13181 3100 ft 185 kts 63°
2026-05-06 09:12 40.82785 29.14661 2865 ft 173 kts 63°
2026-05-06 09:12 40.83296 29.16060 2620 ft 166 kts 63°
2026-05-06 09:12 40.83795 29.17428 2417 ft 166 kts 64°
2026-05-06 09:12 40.84283 29.18764 2214 ft 160 kts 63°
2026-05-06 09:13 40.84755 29.20056 1999 ft 154 kts 63°
2026-05-06 09:13 40.85225 29.21340 1769 ft 156 kts 64°
2026-05-06 09:13 40.85693 29.22618 1560 ft 153 kts 64°
2026-05-06 09:13 40.86151 29.23872 1353 ft 150 kts 64°
2026-05-06 09:14 40.86608 29.25119 1153 ft 152 kts 63°
2026-05-06 09:14 40.87077 29.26395 962 ft 157 kts 64°
2026-05-06 09:14 40.87548 29.27685 763 ft 157 kts 64°
2026-05-06 09:14 40.88017 29.28968 492 ft 163 kts 66°
2026-05-06 09:15 40.88569 29.30457 850 ft 201 kts 64°
2026-05-06 09:15 40.89224 29.32261 1533 ft 226 kts 65°
2026-05-06 09:15 40.89848 29.34083 1966 ft 216 kts 63°
2026-05-06 09:15 40.90539 29.35905 2038 ft 231 kts 71°
2026-05-06 09:16 40.90554 29.38066 2657 ft 246 kts 107°
2026-05-06 09:16 40.89908 29.40177 2942 ft 251 kts 115°
2026-05-06 09:16 40.89168 29.42263 2991 ft 250 kts 115°
2026-05-06 09:16 40.88418 29.44343 3010 ft 252 kts 116°
2026-05-06 09:17 40.87653 29.46451 2985 ft 256 kts 115°
2026-05-06 09:17 40.86911 29.48574 3016 ft 254 kts 116°
2026-05-06 09:17 40.86169 29.50626 3379 ft 248 kts 112°
2026-05-06 09:17 40.85935 29.52840 3952 ft 244 kts 79°
2026-05-06 09:18 40.86485 29.54965 3989 ft 247 kts 66°
2026-05-06 09:18 40.87156 29.57054 3994 ft 247 kts 66°
2026-05-06 09:18 40.87824 29.59141 3999 ft 246 kts 65°
2026-05-06 09:18 40.88481 29.61207 4007 ft 240 kts 66°
2026-05-06 09:19 40.89115 29.63202 3980 ft 231 kts 66°
2026-05-06 09:19 40.89724 29.65125 4010 ft 227 kts 66°
2026-05-06 09:19 40.90511 29.66929 3949 ft 227 kts 38°
2026-05-06 09:19 40.91874 29.67694 4021 ft 217 kts 359°
2026-05-06 09:20 40.93347 29.67221 3903 ft 222 kts 336°
2026-05-06 09:20 40.94770 29.66426 3724 ft 222 kts 336°
2026-05-06 09:20 40.96179 29.65614 3554 ft 219 kts 328°
2026-05-06 09:20 40.97149 29.64181 3531 ft 210 kts 291°
2026-05-06 09:21 40.97377 29.62285 3511 ft 209 kts 274°
2026-05-06 09:21 40.97508 29.60387 3496 ft 206 kts 276°
2026-05-06 09:21 40.97660 29.58502 3501 ft 208 kts 276°
2026-05-06 09:21 40.97801 29.56590 3518 ft 207 kts 271°
2026-05-06 09:22 40.97446 29.54818 3509 ft 194 kts 242°
2026-05-06 09:22 40.96877 29.53262 3526 ft 189 kts 247°
2026-05-06 09:22 40.96321 29.51666 3494 ft 190 kts 244°
2026-05-06 09:22 40.95765 29.50086 3336 ft 194 kts 249°
2026-05-06 09:23 40.95235 29.48502 3104 ft 184 kts 244°
2026-05-06 09:23 40.94665 29.47026 2862 ft 176 kts 244°
2026-05-06 09:23 40.94301 29.46054 2636 ft 173 kts 244°
2026-05-06 09:23 40.93782 29.44655 2389 ft 169 kts 244°
2026-05-06 09:24 40.93272 29.43281 2118 ft 165 kts 244°
2026-05-06 09:24 40.92644 29.41572 1803 ft 149 kts 245°
2026-05-06 09:24 40.92336 29.40737 1635 ft 149 kts 244°
2026-05-06 09:24 40.91883 29.39507 1391 ft 150 kts 244°
2026-05-06 09:25 40.91431 29.38276 1187 ft 150 kts 244°
2026-05-06 09:25 40.90979 29.37033 1006 ft 147 kts 245°
2026-05-06 09:25 40.90545 29.35815 737 ft 151 kts 243°
2026-05-06 09:25 40.90079 29.34586 474 ft 149 kts 243°
2026-05-06 09:26 40.89633 29.33373 305 ft 140 kts 243°
2026-05-06 09:26 40.89315 29.32512 301 ft 99 kts 243°
2026-05-06 09:26 40.89180 29.32157 301 ft 63 kts 246°
2026-05-06 09:26 40.89127 29.32001 301 ft 9 kts 245°
2026-05-06 09:27 40.89125 29.31994 301 ft 0 kts 245°
2026-05-06 09:27 40.89124 29.31990 301 ft 1 kts 251°
2026-05-06 09:27 40.89123 29.31985 301 ft 1 kts 252°
2026-05-06 09:27 40.89123 29.31984 301 ft 0 kts 252°
2026-05-06 09:28 40.89122 29.31983 301 ft 0 kts 252°
2026-05-06 09:28 40.89122 29.31982 302 ft 0 kts 252°
2026-05-06 09:28 40.89122 29.31980 303 ft 0 kts 252°
2026-05-06 09:28 40.89122 29.31979 303 ft 0 kts 252°
2026-05-06 09:29 40.89121 29.31979 303 ft 0 kts 253°
2026-05-06 09:29 40.89121 29.31978 303 ft 0 kts 253°
2026-05-06 09:29 40.89120 29.31973 303 ft 1 kts 253°
2026-05-06 09:30 40.89118 29.31963 302 ft 1 kts 256°
2026-05-06 09:30 40.89117 29.31954 302 ft 1 kts 258°
2026-05-06 09:30 40.89108 29.31829 303 ft 30 kts 271°
2026-05-06 09:30 40.89133 29.31553 300 ft 29 kts 277°
2026-05-06 09:31 40.89247 29.31452 300 ft 23 kts 33°
2026-05-06 09:31 40.89363 29.31422 303 ft 16 kts 332°
2026-05-06 09:31 40.89455 29.31365 305 ft 13 kts 333°
2026-05-06 09:31 40.89526 29.31318 309 ft 10 kts 333°
2026-05-06 09:32 40.89591 29.31276 309 ft 12 kts 334°
2026-05-06 09:32 40.89681 29.31217 310 ft 17 kts 334°
2026-05-06 09:32 40.89758 29.31153 310 ft 7 kts 321°
2026-05-06 09:32 40.89799 29.31116 310 ft 7 kts 334°
2026-05-06 09:33 40.89815 29.31106 310 ft 0 kts 335°